[[{"header":{"parameterUnit":"m.s-1","parameterCategory":1,"la1":30.2991,"la2":30.254,"lo1":-89.0895,"lo2":-89.0444,"dy":0.0017,"dx":0.0017,"nx":28,"ny":28,"refTime":"2025-06-22T21:00:00:Z","depth":0,"parameterNumber":2,"parameterNumberName":"U-component_of_WINDS"},"data":[0,0,0,0,0,0,0,0,0,0,0,0,0,0,0,0,0,0,0,0,0,0,0,0,0,0,0,0,0,0,0,0,0,0,0,0,0,0,0,0,0,0,0,0,0,0,0,0,0,0,0,0,0,0,0,0,0,0,0.4001,0.4001,0,0.3993,0.3993,0.3993,0.3994,0.3994,0.3995,0.3995,0.3985,0.3984,0.3984,0,0,0,0,0,0,0,0,0,0,0,0,0,0.4015,0.4015,0.4001,0.4001,0.4001,0.3993,0.3993,0.3993,0.3994,0.3994,0.3995,0.3995,0.3985,0.3984,0.3984,0,0,0,0,0,0,0,0,0,0,0,0,0,0.4008,0.4015,0.4001,0.4,0.4,0.3993,0.3993,0.3993,0.3994,0.3994,0.3995,0.3995,0.3985,0.3984,0.3984,0.3976,0,0,0.3982,0.3982,0,0,0,0,0,0,0,0,0.4009,0.4008,0.4001,0.4,0.4,0.3995,0.3994,0.3987,0.3994,0.3996,0.3995,0.3995,0.3988,0.3987,0.3985,0.3975,0.3975,0.3982,0.3982,0.3981,0.3981,0,0,0,0,0,0,0,0.4009,0.4008,0.3998,0.4,0.4,0.4,0.3999,0.3993,0.3991,0.3996,0.3996,0.3996,0.3988,0.3986,0.3985,0.3975,0.3982,0.3981,0.3981,0.3981,0.3957,0.3957,0,0,0,0,0,0,0.401,0.4008,0.3998,0.3997,0.4005,0.4,0.3999,0.3996,0.3991,0.399,0.3995,0.3996,0.3986,0.3985,0.3984,0.3974,0.3981,0.3981,0.398,0.3957,0.3957,0.3957,0,0,0,0,0,0,0.401,0.4009,0.3998,0.4003,0.4002,0.3999,0.3996,0.3996,0.3994,0.399,0.399,0.3994,0.3987,0.3985,0.3978,0.3973,0.398,0.398,0.3957,0.3957,0.3957,0.3953,0,0,0,0,0,0,0.4011,0.4009,0.4006,0.4003,0.4001,0.3992,0.3996,0.3996,0.3993,0.3993,0.3989,0.3988,0.3987,0.3979,0.3977,0.3973,0.3979,0.3958,0.3957,0.3957,0.3953,0.3953,0.3952,0,0,0,0,0,0.4011,0.4005,0.4006,0.4005,0.3998,0.3992,0.3991,0.399,0.3993,0.399,0.3987,0.3988,0.3974,0.3978,0.3976,0.3972,0.3958,0.3957,0.3957,0.3954,0.3953,0.3952,0,0,0,0,0,0,0.4008,0.4005,0.4006,0.3999,0.3996,0.3992,0.3988,0.3989,0.3985,0.3985,0.3984,0.3983,0.3975,0.3973,0.3977,0.3963,0.3966,0.3965,0.3965,0.3964,0.3963,0.3963,0.3979,0,0,0,0,0,0.4007,0.4003,0.4,0.3994,0.3993,0.3991,0.3988,0.3988,0.3984,0.3983,0.398,0.3976,0.3971,0.3967,0.3962,0.3953,0.3952,0.3949,0.3948,0.3948,0.3947,0.3941,0.3939,0.3955,0.3955,0.3955,0,0,0.4003,0.4001,0.3999,0.3993,0.3991,0.3986,0.399,0.3985,0.3981,0.3982,0.3975,0.3972,0.3968,0.3959,0.3956,0.3957,0.3942,0.3947,0.3946,0.3946,0.394,0.3939,0.3937,0.3954,0.3954,0.3954,0,0,0.3995,0.3994,0.3988,0.3986,0.3982,0.3981,0.398,0.3976,0.3975,0.3968,0.3968,0.3963,0.3955,0.3951,0.3948,0.3938,0.3938,0.3937,0.3931,0.3926,0.3925,0.3924,0.3919,0.3918,0.3936,0.3936,0.3936,0,0.3991,0.3985,0.3985,0.398,0.3977,0.3979,0.3973,0.397,0.3965,0.3962,0.3965,0.3953,0.395,0.3941,0.3938,0.3936,0.3934,0.3937,0.3925,0.3924,0.3923,0.3919,0.3917,0.3935,0.3935,0.3935,0.3935,0,0.398,0.3975,0.3971,0.3967,0.3964,0.3958,0.3957,0.3954,0.3954,0.3952,0.3944,0.3941,0.3935,0.3933,0.3932,0.3923,0.3924,0.3926,0.3929,0.3921,0.3917,0.3916,0.3935,0.3935,0.3935,0.3935,0,0,0.3969,0.3965,0.3963,0.3961,0.3957,0.3953,0.3947,0.3942,0.3939,0.3935,0.3929,0.3922,0.3923,0.392,0.3919,0.3915,0.3906,0.3917,0.3917,0.3914,0.3894,0.3892,0.389,0.3907,0.3906,0.3906,0.3894,0,0.396,0.395,0.395,0.3941,0.3936,0.3938,0.3932,0.3929,0.3927,0.3922,0.392,0.3915,0.3918,0.3915,0.3911,0.3908,0.3902,0.3909,0.39,0.39,0.3901,0.3888,0.3886,0.3875,0.3893,0.3892,0.3892,0,0.3947,0.3944,0.3934,0.3931,0.3929,0.3924,0.3919,0.3915,0.3911,0.391,0.3906,0.3906,0.3899,0.3903,0.3893,0.3898,0.3894,0.3893,0.3892,0.389,0.3895,0.3885,0.3872,0.387,0.389,0.389,0.389,0,0.3939,0.3932,0.3925,0.3923,0.3919,0.3916,0.3914,0.391,0.3907,0.3902,0.39,0.3894,0.3891,0.3886,0.3884,0.3888,0.3874,0.3878,0.3872,0.3872,0.3868,0.3868,0.3853,0.3867,0.3867,0.3868,0.3868,0,0.3928,0.3922,0.3921,0.3917,0.391,0.391,0.3903,0.3901,0.3897,0.3892,0.3893,0.3888,0.3886,0.388,0.3879,0.387,0.3869,0.3867,0.3867,0.3867,0.3867,0.3864,0.3864,0.3867,0.3867,0.3867,0.3867,0,0.3918,0.3917,0.391,0.3907,0.3906,0.39,0.3897,0.3893,0.3891,0.3884,0.3883,0.388,0.3874,0.3872,0.3863,0.3862,0.3852,0.3852,0.3853,0.3853,0.3846,0.3847,0.3828,0.3825,0.3842,0.3842,0.3842,0,0.391,0.3906,0.3902,0.3899,0.3897,0.3892,0.3889,0.3888,0.3885,0.3879,0.3875,0.3869,0.3863,0.3853,0.3849,0.3843,0.3843,0.3837,0.3842,0.3841,0.3841,0.3841,0.384,0.3835,0.3835,0.3835,0.3835,0,0.3897,0.3897,0.3893,0.3888,0.3884,0.388,0.3876,0.3874,0.3872,0.3868,0.3862,0.3858,0.3849,0.3843,0.3836,0.3833,0.3833,0.3833,0.3831,0.3831,0.3831,0.383,0.385,0.3834,0.3834,0.3834,0.3834,0.3834,0.3887,0.3883,0.388,0.3874,0.3872,0.3868,0.3863,0.3862,0.3856,0.385,0.385,0.3843,0.3838,0.3829,0.3826,0.3819,0.3821,0.3819,0.3818,0.3817,0.3816,0.3833,0.3818,0.3818,0.3818,0.3818,0.3819,0,0.3873,0.3871,0.3866,0.3861,0.3857,0.3859,0.3855,0.3851,0.3844,0.384,0.3835,0.3827,0.3821,0.3817,0.381,0.3806,0.3805,0.3804,0.3803,0.3802,0.3815,0.3817,0.3804,0.3804,0.3804,0.3804,0.3804,0.3804,0.3865,0.3858,0.3857,0.3848,0.3846,0.3839,0.3837,0.3833,0.383,0.3821,0.3816,0.3814,0.3809,0.3802,0.3796,0.3795,0.3792,0.3789,0.3788,0.38,0.3802,0.3803,0.3805,0.3789,0.3789,0.3776,0.3776,0.3776]},{"header":{"parameterUnit":"m.s-1","parameterCategory":1,"la1":30.2991,"la2":30.254,"lo1":-89.0895,"lo2":-89.0444,"dy":0.0017,"dx":0.0017,"nx":28,"ny":28,"refTime":"2025-06-22T21:00:00:Z","depth":0,"parameterNumber":3,"parameterNumberName":"V-component_of_WINDS"},"data":[0,0,0,0,0,0,0,0,0,0,0,0,0,0,0,0,0,0,0,0,0,0,0,0,0,0,0,0,0,0,0,0,0,0,0,0,0,0,0,0,0,0,0,0,0,0,0,0,0,0,0,0,0,0,0,0,0,0,-2.0946,-2.0946,0,-2.0935,-2.0934,-2.0934,-2.0917,-2.0916,-2.0916,-2.0916,-2.0904,-2.0904,-2.0903,0,0,0,0,0,0,0,0,0,0,0,0,0,-2.0953,-2.0953,-2.0946,-2.0946,-2.0946,-2.0935,-2.0934,-2.0934,-2.0917,-2.0916,-2.0916,-2.0916,-2.0904,-2.0904,-2.0903,0,0,0,0,0,0,0,0,0,0,0,0,0,-2.0947,-2.0953,-2.0946,-2.0936,-2.0935,-2.0935,-2.0934,-2.0934,-2.0917,-2.0916,-2.0916,-2.0916,-2.0904,-2.0904,-2.0903,-2.0912,0,0,-2.0903,-2.0903,0,0,0,0,0,0,0,0,-2.0947,-2.0946,-2.0938,-2.0937,-2.0935,-2.0927,-2.0932,-2.0927,-2.0917,-2.0924,-2.0916,-2.0915,-2.0912,-2.0911,-2.091,-2.0912,-2.0911,-2.0903,-2.0903,-2.0903,-2.0903,0,0,0,0,0,0,0,-2.0948,-2.0947,-2.0942,-2.0937,-2.0936,-2.0932,-2.093,-2.0931,-2.092,-2.0923,-2.0922,-2.0921,-2.0911,-2.091,-2.0909,-2.0911,-2.0903,-2.0903,-2.0903,-2.0903,-2.0919,-2.0919,0,0,0,0,0,0,-2.095,-2.0947,-2.0942,-2.0941,-2.094,-2.0932,-2.093,-2.093,-2.092,-2.0918,-2.0921,-2.092,-2.091,-2.0909,-2.0909,-2.0918,-2.0903,-2.0903,-2.0903,-2.0918,-2.0919,-2.0919,0,0,0,0,0,0,-2.095,-2.0949,-2.0942,-2.0944,-2.0943,-2.0932,-2.0932,-2.093,-2.0929,-2.0919,-2.0917,-2.0922,-2.091,-2.0909,-2.0911,-2.0917,-2.0903,-2.0903,-2.0918,-2.0919,-2.0919,-2.0936,0,0,0,0,0,0,-2.095,-2.0949,-2.0953,-2.0944,-2.0943,-2.0945,-2.0932,-2.093,-2.0929,-2.0927,-2.0919,-2.0917,-2.0909,-2.0912,-2.0911,-2.0917,-2.0903,-2.0917,-2.0918,-2.0919,-2.0935,-2.0937,-2.0939,0,0,0,0,0,-2.095,-2.0958,-2.0953,-2.0953,-2.0947,-2.0946,-2.0945,-2.0936,-2.0929,-2.0932,-2.0926,-2.0917,-2.0917,-2.0912,-2.0912,-2.0917,-2.0917,-2.0918,-2.0919,-2.0934,-2.0937,-2.0939,0,0,0,0,0,0,-2.0968,-2.0957,-2.0951,-2.0956,-2.0952,-2.0943,-2.0946,-2.0939,-2.0937,-2.0935,-2.0924,-2.0922,-2.0926,-2.0922,-2.0917,-2.0924,-2.0915,-2.0916,-2.0927,-2.0929,-2.0932,-2.0932,-2.0903,0,0,0,0,0,-2.0972,-2.0972,-2.0963,-2.0968,-2.0967,-2.0957,-2.0956,-2.095,-2.0945,-2.0943,-2.0937,-2.0932,-2.0931,-2.093,-2.0928,-2.0934,-2.0932,-2.0938,-2.094,-2.0942,-2.0942,-2.0944,-2.0947,-2.0923,-2.0923,-2.0923,0,0,-2.0981,-2.0975,-2.0976,-2.0972,-2.0968,-2.0968,-2.0956,-2.0957,-2.0956,-2.0943,-2.0945,-2.094,-2.0934,-2.0938,-2.094,-2.0935,-2.0949,-2.0943,-2.0945,-2.0944,-2.0946,-2.0948,-2.095,-2.0923,-2.0923,-2.0923,0,0,-2.0997,-2.0994,-2.0997,-2.0993,-2.0987,-2.0981,-2.0982,-2.0974,-2.097,-2.0972,-2.0961,-2.0961,-2.0959,-2.0955,-2.0953,-2.0968,-2.096,-2.0968,-2.0979,-2.0981,-2.0983,-2.0984,-2.0989,-2.099,-2.0969,-2.0969,-2.0969,0,-2.1009,-2.1009,-2.1,-2.1001,-2.0999,-2.0987,-2.0991,-2.0988,-2.0981,-2.098,-2.0975,-2.0972,-2.0967,-2.097,-2.0973,-2.0973,-2.0973,-2.0968,-2.0983,-2.0985,-2.0986,-2.099,-2.0992,-2.097,-2.097,-2.097,-2.097,0,-2.1024,-2.1024,-2.1028,-2.1022,-2.1021,-2.1023,-2.1014,-2.1013,-2.1007,-2.1001,-2.1002,-2.0997,-2.0993,-2.0993,-2.0987,-2.0995,-2.0992,-2.0985,-2.0976,-2.0989,-2.0993,-2.0994,-2.0971,-2.0971,-2.0971,-2.097,0,0,-2.105,-2.1039,-2.104,-2.1037,-2.103,-2.103,-2.1032,-2.1028,-2.1028,-2.1024,-2.1025,-2.1024,-2.1017,-2.1014,-2.1008,-2.101,-2.1021,-2.1003,-2.1002,-2.1005,-2.1028,-2.1032,-2.1034,-2.1016,-2.1016,-2.1016,-2.1028,0,-2.1064,-2.1066,-2.1058,-2.1062,-2.1062,-2.1051,-2.1052,-2.1048,-2.1042,-2.1041,-2.1035,-2.1034,-2.1026,-2.1024,-2.1026,-2.1019,-2.1025,-2.1018,-2.1015,-2.1015,-2.1016,-2.1036,-2.1041,-2.1052,-2.1029,-2.103,-2.103,0,-2.108,-2.1077,-2.1082,-2.1074,-2.1073,-2.1075,-2.1071,-2.107,-2.1064,-2.106,-2.1058,-2.105,-2.1051,-2.1042,-2.1043,-2.1038,-2.1037,-2.1033,-2.1034,-2.1032,-2.1023,-2.1034,-2.1056,-2.1057,-2.1032,-2.1032,-2.1032,0,-2.1098,-2.1095,-2.1097,-2.1095,-2.1086,-2.1087,-2.1083,-2.1077,-2.1076,-2.1072,-2.1071,-2.1068,-2.1066,-2.1063,-2.1055,-2.1049,-2.1056,-2.1047,-2.1052,-2.1052,-2.1053,-2.1053,-2.1073,-2.1054,-2.1054,-2.1054,-2.1053,0,-2.1114,-2.1116,-2.1104,-2.1106,-2.1108,-2.1099,-2.1102,-2.1097,-2.1092,-2.1091,-2.1082,-2.1082,-2.1071,-2.1069,-2.1063,-2.1064,-2.1063,-2.1059,-2.1057,-2.1059,-2.106,-2.1058,-2.1056,-2.1054,-2.1054,-2.1054,-2.1054,0,-2.1133,-2.1125,-2.1126,-2.1118,-2.1116,-2.1118,-2.1111,-2.1111,-2.1105,-2.1105,-2.1104,-2.1095,-2.1093,-2.1084,-2.108,-2.1075,-2.1078,-2.1075,-2.108,-2.1078,-2.1083,-2.1083,-2.1102,-2.1104,-2.1084,-2.1085,-2.1085,0,-2.1143,-2.1145,-2.1137,-2.1136,-2.1132,-2.1131,-2.113,-2.112,-2.1119,-2.1113,-2.1114,-2.1111,-2.1108,-2.1105,-2.1097,-2.1094,-2.109,-2.1097,-2.1089,-2.1091,-2.1089,-2.1088,-2.1088,-2.1099,-2.1099,-2.1099,-2.1099,0,-2.1161,-2.1158,-2.1155,-2.1152,-2.115,-2.1147,-2.1143,-2.1143,-2.1133,-2.1131,-2.1129,-2.1127,-2.1122,-2.1119,-2.1115,-2.111,-2.1103,-2.1102,-2.1103,-2.1104,-2.1107,-2.1105,-2.1083,-2.1101,-2.1101,-2.1101,-2.1101,-2.1101,-2.1176,-2.1177,-2.1171,-2.1169,-2.1165,-2.1162,-2.1161,-2.1156,-2.1154,-2.1149,-2.1144,-2.1142,-2.1136,-2.1129,-2.1126,-2.1124,-2.112,-2.1121,-2.1121,-2.1121,-2.1122,-2.1108,-2.1123,-2.1123,-2.1123,-2.1123,-2.1123,0,-2.1193,-2.1188,-2.1187,-2.1182,-2.118,-2.1174,-2.1169,-2.1168,-2.1166,-2.1162,-2.1159,-2.1156,-2.1153,-2.1145,-2.1142,-2.1141,-2.1138,-2.1141,-2.114,-2.1139,-2.1126,-2.1126,-2.1144,-2.1144,-2.1144,-2.1144,-2.1144,-2.1144,-2.1201,-2.1202,-2.1198,-2.1196,-2.1192,-2.119,-2.1188,-2.1185,-2.1181,-2.1178,-2.1176,-2.1171,-2.1165,-2.116,-2.1157,-2.1155,-2.1154,-2.1157,-2.1154,-2.1142,-2.114,-2.1138,-2.1137,-2.1157,-2.1157,-2.1166,-2.1167,-2.1167]}]]